TimeCST,TemperatureF,Dew PointF,Humidity,Sea Level PressureIn,VisibilityMPH,Wind Direction,Wind SpeedMPH,Gust SpeedMPH,PrecipitationIn,Events,Conditions,WindDirDegrees,DateUTC
12:53 AM,36.0,26.1,67,30.10,10.0,Calm,Calm,-,N/A,,Clear,0,2013-02-06 06:53:00
1:53 AM,33.1,25.0,72,30.09,10.0,ESE,5.8,-,N/A,,Clear,120,2013-02-06 07:53:00
2:53 AM,27.0,23.0,85,30.09,10.0,SSE,5.8,-,N/A,,Clear,150,2013-02-06 08:53:00
3:53 AM,32.0,26.1,79,30.07,10.0,SE,9.2,-,N/A,,Clear,140,2013-02-06 09:53:00
4:53 AM,32.0,26.1,79,30.07,10.0,SE,9.2,-,N/A,,Clear,140,2013-02-06 10:53:00
5:53 AM,33.1,26.1,75,30.08,10.0,SE,8.1,-,N/A,,Clear,140,2013-02-06 11:53:00
6:53 AM,32.0,26.1,79,30.08,10.0,SE,6.9,-,N/A,,Clear,130,2013-02-06 12:53:00
7:53 AM,30.9,26.1,82,30.09,10.0,SE,4.6,-,N/A,,Clear,130,2013-02-06 13:53:00
8:53 AM,37.0,30.0,76,30.07,10.0,SE,11.5,-,N/A,,Clear,140,2013-02-06 14:53:00
9:53 AM,46.9,32.0,56,30.05,10.0,SSE,17.3,23.0,N/A,,Clear,150,2013-02-06 15:53:00
10:53 AM,52.0,33.1,49,30.04,10.0,South,16.1,24.2,N/A,,Clear,170,2013-02-06 16:53:00
11:53 AM,57.0,36.0,45,29.99,10.0,South,18.4,28.8,N/A,,Clear,180,2013-02-06 17:53:00
12:53 PM,61.0,43.0,52,29.95,10.0,South,20.7,29.9,N/A,,Partly Cloudy,180,2013-02-06 18:53:00
1:51 PM,59.0,48.2,67,29.91,8.0,South,23.0,31.1,N/A,,Mostly Cloudy,180,2013-02-06 19:51:00
1:53 PM,59.0,46.9,64,29.92,8.0,South,21.9,31.1,N/A,,Mostly Cloudy,180,2013-02-06 19:53:00
2:24 PM,62.6,48.2,59,29.89,8.0,South,17.3,26.5,N/A,,Scattered Clouds,180,2013-02-06 20:24:00
2:53 PM,62.1,46.9,58,29.89,9.0,South,19.6,26.5,N/A,,Partly Cloudy,170,2013-02-06 20:53:00
3:53 PM,63.0,46.0,54,29.88,10.0,South,18.4,-,N/A,,Mostly Cloudy,170,2013-02-06 21:53:00
4:53 PM,62.1,48.0,60,29.86,10.0,South,18.4,25.3,N/A,,Clear,170,2013-02-06 22:53:00
5:53 PM,59.0,46.0,62,29.86,10.0,SSE,13.8,23.0,N/A,,Partly Cloudy,160,2013-02-06 23:53:00
6:53 PM,57.0,45.0,64,29.87,10.0,SSE,12.7,-,N/A,,Clear,160,2013-02-07 00:53:00
7:53 PM,55.9,46.0,69,29.88,10.0,SSE,15.0,-,N/A,,Scattered Clouds,160,2013-02-07 01:53:00
8:53 PM,54.0,44.1,69,29.87,10.0,SSE,16.1,-,N/A,,Mostly Cloudy,160,2013-02-07 02:53:00
9:53 PM,54.0,41.0,62,29.88,10.0,South,15.0,-,N/A,,Clear,170,2013-02-07 03:53:00
10:53 PM,53.1,41.0,64,29.89,10.0,South,11.5,-,N/A,,Mostly Cloudy,180,2013-02-07 04:53:00
11:53 PM,53.1,39.9,61,29.89,10.0,SSE,13.8,-,N/A,,Overcast,150,2013-02-07 05:53:00